[[{"header":{"parameterUnit":"m.s-1","parameterCategory":1,"la1":30.2991,"la2":30.254,"lo1":-89.0895,"lo2":-89.0444,"dy":0.0017,"dx":0.0017,"nx":28,"ny":28,"refTime":"2024-03-13T09:00:00:Z","depth":0,"parameterNumber":2,"parameterNumberName":"U-component_of_WINDS"},"data":[0,0,0,0,0,0,0,0,0,0,0,0,0,0,0,0,0,0,0,0,0,0,0,0,0,0,0,0,0,0,0,0,0,0,0,0,0,0,0,0,0,0,0,0,0,0,0,0,0,0,0,0,0,0,0,0,0,0,-2.1149,-2.1149,0,-2.1173,-2.1173,-2.1174,-2.1067,-2.1064,-2.1061,-2.1058,-2.1086,-2.109,-2.1094,0,0,0,0,0,0,0,0,0,0,0,0,0,-2.1014,-2.1017,-2.1149,-2.1149,-2.1149,-2.1173,-2.1173,-2.1174,-2.1068,-2.1064,-2.106,-2.1057,-2.1085,-2.109,-2.1094,0,0,0,0,0,0,0,0,0,0,0,0,0,-2.1059,-2.1018,-2.1149,-2.1099,-2.1095,-2.1173,-2.1173,-2.1174,-2.1069,-2.1064,-2.1059,-2.1055,-2.1084,-2.1089,-2.1095,-2.1222,0,0,-2.1111,-2.1114,0,0,0,0,0,0,0,0,-2.1057,-2.1064,-2.1106,-2.1103,-2.1098,-2.1112,-2.1136,-2.119,-2.107,-2.1079,-2.1058,-2.1053,-2.1099,-2.1103,-2.1118,-2.1223,-2.1225,-2.1112,-2.1115,-2.1118,-2.1119,0,0,0,0,0,0,0,-2.1054,-2.1063,-2.1158,-2.1107,-2.1102,-2.1077,-2.1078,-2.1146,-2.1115,-2.1078,-2.107,-2.1074,-2.1096,-2.1113,-2.1118,-2.1225,-2.1112,-2.1117,-2.112,-2.1122,-2.1439,-2.1444,0,0,0,0,0,0,-2.1057,-2.1061,-2.1158,-2.1159,-2.1065,-2.1084,-2.1085,-2.1113,-2.1114,-2.111,-2.1078,-2.1069,-2.1106,-2.1112,-2.1119,-2.127,-2.1117,-2.1123,-2.1126,-2.1434,-2.144,-2.1446,0,0,0,0,0,0,-2.1054,-2.1066,-2.1157,-2.1108,-2.1117,-2.1091,-2.1123,-2.1116,-2.1132,-2.1114,-2.1109,-2.1101,-2.1102,-2.1111,-2.1198,-2.1269,-2.1125,-2.113,-2.1428,-2.1436,-2.1443,-2.1572,0,0,0,0,0,0,-2.1051,-2.1066,-2.1113,-2.111,-2.112,-2.1234,-2.1127,-2.1119,-2.1142,-2.113,-2.1134,-2.113,-2.1099,-2.119,-2.1203,-2.1274,-2.1134,-2.1422,-2.1432,-2.1441,-2.1562,-2.1583,-2.1602,0,0,0,0,0,-2.1046,-2.1149,-2.1116,-2.1128,-2.1179,-2.1239,-2.1245,-2.1206,-2.1148,-2.1196,-2.1185,-2.113,-2.1259,-2.12,-2.1214,-2.1287,-2.1417,-2.1429,-2.144,-2.1552,-2.1579,-2.1602,0,0,0,0,0,0,-2.1162,-2.1147,-2.1111,-2.1215,-2.1229,-2.122,-2.128,-2.1235,-2.1267,-2.1255,-2.1207,-2.1209,-2.1305,-2.1304,-2.1238,-2.1412,-2.1328,-2.1343,-2.1409,-2.1434,-2.1454,-2.1453,-2.1139,0,0,0,0,0,-2.1199,-2.1248,-2.1233,-2.1326,-2.1335,-2.1307,-2.1331,-2.13,-2.1313,-2.1319,-2.1314,-2.133,-2.1373,-2.1404,-2.1443,-2.1561,-2.1561,-2.1619,-2.1639,-2.1656,-2.167,-2.1734,-2.176,-2.1484,-2.1484,-2.1484,0,0,-2.1277,-2.1275,-2.1309,-2.1349,-2.1356,-2.141,-2.1312,-2.1372,-2.1412,-2.1328,-2.141,-2.1407,-2.1422,-2.1525,-2.1571,-2.1528,-2.1746,-2.167,-2.1684,-2.1689,-2.1749,-2.1775,-2.1799,-2.1492,-2.149,-2.1489,0,0,-2.1446,-2.1449,-2.1528,-2.1538,-2.155,-2.153,-2.155,-2.1549,-2.1544,-2.1625,-2.1564,-2.1611,-2.1687,-2.1701,-2.1718,-2.1895,-2.1847,-2.1909,-2.2016,-2.208,-2.2102,-2.2121,-2.2186,-2.221,-2.1923,-2.1923,-2.1923,0,-2.1542,-2.1619,-2.1574,-2.1639,-2.166,-2.1586,-2.1667,-2.1679,-2.1704,-2.1721,-2.1672,-2.1768,-2.1772,-2.1879,-2.1923,-2.1938,-2.196,-2.1909,-2.2102,-2.2121,-2.2138,-2.22,-2.2224,-2.1931,-2.193,-2.1929,-2.1928,0,-2.1737,-2.1791,-2.1854,-2.188,-2.1907,-2.198,-2.1948,-2.1982,-2.1949,-2.1936,-2.2021,-2.2024,-2.2064,-2.2087,-2.2055,-2.219,-2.2164,-2.211,-2.2024,-2.2173,-2.223,-2.2253,-2.1942,-2.1939,-2.1937,-2.1935,0,0,-2.1979,-2.198,-2.2004,-2.2016,-2.2025,-2.2067,-2.2138,-2.2176,-2.2207,-2.2227,-2.2286,-2.2353,-2.2304,-2.2323,-2.2293,-2.2349,-2.2492,-2.2288,-2.2288,-2.2327,-2.2644,-2.2685,-2.2713,-2.246,-2.2464,-2.2468,-2.2643,0,-2.2146,-2.2265,-2.2229,-2.235,-2.2401,-2.2333,-2.2394,-2.2408,-2.2398,-2.2441,-2.243,-2.2479,-2.2409,-2.242,-2.2473,-2.2464,-2.2555,-2.245,-2.2517,-2.2519,-2.2516,-2.2743,-2.2787,-2.2952,-2.2665,-2.2669,-2.2671,0,-2.2357,-2.2386,-2.2512,-2.2515,-2.2535,-2.2591,-2.2624,-2.2666,-2.268,-2.2669,-2.2692,-2.2651,-2.2722,-2.2636,-2.2735,-2.2664,-2.2689,-2.269,-2.2695,-2.2701,-2.2605,-2.2756,-2.3003,-2.3029,-2.2706,-2.2703,-2.2701,0,-2.2524,-2.2594,-2.2679,-2.2691,-2.2695,-2.2737,-2.2741,-2.2751,-2.2777,-2.2807,-2.2824,-2.2862,-2.2883,-2.2914,-2.2886,-2.2825,-2.299,-2.2901,-2.2984,-2.2985,-2.3023,-2.3021,-2.3279,-2.3037,-2.3036,-2.3036,-2.3036,0,-2.2715,-2.2796,-2.2754,-2.2807,-2.2895,-2.2853,-2.2943,-2.2939,-2.2949,-2.3001,-2.2945,-2.2995,-2.2953,-2.3001,-2.2979,-2.3065,-2.3075,-2.3069,-2.3063,-2.3075,-2.3076,-2.3091,-2.308,-2.3043,-2.3041,-2.304,-2.3039,0,-2.2916,-2.2891,-2.298,-2.2977,-2.2979,-2.3045,-2.3043,-2.3093,-2.3079,-2.3146,-2.3159,-2.3138,-2.3191,-2.3165,-2.322,-2.3205,-2.3318,-2.3295,-2.3313,-2.3307,-2.3393,-2.3386,-2.3671,-2.3707,-2.3441,-2.3443,-2.3445,0,-2.304,-2.3101,-2.3105,-2.3136,-2.3144,-2.3193,-2.322,-2.3182,-2.3212,-2.3235,-2.3283,-2.3331,-2.3367,-2.3455,-2.3446,-2.3488,-2.3467,-2.3564,-2.3473,-2.3485,-2.3471,-2.3468,-2.3475,-2.3583,-2.3586,-2.3589,-2.3591,0,-2.3265,-2.325,-2.329,-2.3327,-2.3361,-2.3388,-2.3411,-2.3439,-2.3402,-2.344,-2.3493,-2.3521,-2.3578,-2.3628,-2.3665,-2.367,-2.3626,-2.3619,-2.3641,-2.3655,-2.3664,-2.3662,-2.3364,-2.3613,-2.3611,-2.3609,-2.3608,-2.3607,-2.3432,-2.3483,-2.3495,-2.3543,-2.3556,-2.3579,-2.3626,-2.3619,-2.3662,-2.3705,-2.368,-2.3743,-2.3759,-2.3804,-2.3817,-2.3867,-2.3828,-2.3859,-2.3868,-2.3876,-2.3889,-2.3655,-2.3873,-2.3872,-2.3872,-2.3871,-2.3871,0,-2.3655,-2.3659,-2.3703,-2.3737,-2.3776,-2.3729,-2.3752,-2.3788,-2.3844,-2.3862,-2.3899,-2.3962,-2.401,-2.4005,-2.4049,-2.4091,-2.4071,-2.4104,-2.4101,-2.4104,-2.3919,-2.3897,-2.4119,-2.4119,-2.4119,-2.4119,-2.4119,-2.4119,-2.3775,-2.386,-2.3848,-2.394,-2.3944,-2.4005,-2.4023,-2.4044,-2.4059,-2.4131,-2.4171,-2.4167,-2.4176,-2.4221,-2.4264,-2.4262,-2.4281,-2.4322,-2.4312,-2.4141,-2.4116,-2.4093,-2.4071,-2.4326,-2.4327,-2.4492,-2.4494,-2.4495]},{"header":{"parameterUnit":"m.s-1","parameterCategory":1,"la1":30.2991,"la2":30.254,"lo1":-89.0895,"lo2":-89.0444,"dy":0.0017,"dx":0.0017,"nx":28,"ny":28,"refTime":"2024-03-13T09:00:00:Z","depth":0,"parameterNumber":3,"parameterNumberName":"V-component_of_WINDS"},"data":[0,0,0,0,0,0,0,0,0,0,0,0,0,0,0,0,0,0,0,0,0,0,0,0,0,0,0,0,0,0,0,0,0,0,0,0,0,0,0,0,0,0,0,0,0,0,0,0,0,0,0,0,0,0,0,0,0,0,0.7134,0.7135,0,0.7215,0.7216,0.7217,0.7253,0.7253,0.7253,0.7253,0.7335,0.7337,0.7339,0,0,0,0,0,0,0,0,0,0,0,0,0,0.7009,0.7011,0.7134,0.7135,0.7136,0.7215,0.7216,0.7217,0.7253,0.7253,0.7253,0.7253,0.7334,0.7336,0.7339,0,0,0,0,0,0,0,0,0,0,0,0,0,0.7074,0.7012,0.7134,0.7164,0.7167,0.7215,0.7216,0.7218,0.7253,0.7253,0.7253,0.7253,0.7333,0.7336,0.734,0.7364,0,0,0.735,0.7351,0,0,0,0,0,0,0,0,0.707,0.7079,0.7158,0.7162,0.7166,0.7224,0.7202,0.7266,0.7253,0.722,0.7253,0.7253,0.7298,0.7304,0.732,0.7367,0.7371,0.735,0.7352,0.7354,0.7355,0,0,0,0,0,0,0,0.7066,0.7075,0.7166,0.7159,0.7164,0.7173,0.7182,0.7215,0.7259,0.7223,0.7226,0.7235,0.73,0.7316,0.7322,0.7372,0.735,0.7353,0.7355,0.7357,0.7444,0.7444,0,0,0,0,0,0,0.7057,0.7071,0.7164,0.7169,0.7117,0.7175,0.7185,0.7205,0.7259,0.7267,0.7235,0.7237,0.731,0.7318,0.7325,0.7357,0.7354,0.7357,0.7359,0.7444,0.7444,0.7444,0,0,0,0,0,0,0.7054,0.7065,0.716,0.7121,0.7134,0.7177,0.72,0.7207,0.7224,0.7268,0.7276,0.7244,0.7311,0.732,0.7354,0.736,0.7358,0.7362,0.7443,0.7444,0.7444,0.7421,0,0,0,0,0,0,0.705,0.7063,0.7073,0.7121,0.7136,0.7188,0.72,0.7209,0.7229,0.7232,0.7278,0.7286,0.7311,0.7349,0.7357,0.7365,0.7364,0.7443,0.7443,0.7444,0.7421,0.742,0.7419,0,0,0,0,0,0.7046,0.7063,0.7074,0.7084,0.7149,0.7189,0.7197,0.7227,0.723,0.724,0.7268,0.7284,0.7358,0.7352,0.7362,0.737,0.7443,0.7443,0.7444,0.7421,0.742,0.7419,0,0,0,0,0,0,0.7015,0.707,0.7082,0.7115,0.7147,0.7195,0.7208,0.7225,0.7256,0.7257,0.7292,0.7302,0.7333,0.7355,0.7347,0.7397,0.7402,0.7404,0.7381,0.738,0.738,0.7374,0.7367,0,0,0,0,0,0.7012,0.704,0.7086,0.7111,0.7126,0.7164,0.7183,0.7203,0.7237,0.725,0.7281,0.7313,0.7344,0.7363,0.7394,0.7424,0.7435,0.7435,0.7434,0.7433,0.7435,0.7454,0.7454,0.7446,0.7446,0.7446,0,0,0.7006,0.7039,0.7055,0.7106,0.7133,0.7161,0.7176,0.7204,0.7226,0.7255,0.7289,0.7313,0.7351,0.7383,0.7399,0.7403,0.744,0.7434,0.7433,0.7436,0.7454,0.7455,0.7456,0.7447,0.7447,0.7447,0,0,0.701,0.7038,0.7062,0.7089,0.7129,0.7155,0.716,0.7206,0.7223,0.7258,0.728,0.7305,0.7357,0.7383,0.7404,0.7417,0.7433,0.7426,0.7422,0.7439,0.744,0.7441,0.7446,0.7448,0.7428,0.7428,0.7428,0,0.6997,0.7041,0.7072,0.71,0.7122,0.715,0.7175,0.7199,0.7247,0.7261,0.7265,0.7331,0.7358,0.7397,0.7401,0.7416,0.7423,0.7421,0.7437,0.7439,0.744,0.7445,0.7447,0.7427,0.7427,0.7427,0.7427,0,0.7024,0.7053,0.7068,0.7115,0.7138,0.7164,0.7199,0.7219,0.7236,0.7261,0.7296,0.733,0.7368,0.7379,0.7396,0.7421,0.7422,0.7431,0.7437,0.7439,0.7445,0.7447,0.7425,0.7426,0.7426,0.7426,0,0,0.701,0.7074,0.7079,0.7101,0.7148,0.7171,0.7198,0.7236,0.7253,0.7285,0.7308,0.7352,0.736,0.7383,0.7404,0.7419,0.7428,0.7426,0.7428,0.7426,0.7457,0.7451,0.7452,0.7439,0.7439,0.7439,0.7454,0,0.7021,0.7072,0.7101,0.7139,0.7167,0.7194,0.7218,0.7249,0.7273,0.73,0.7326,0.7356,0.7365,0.7379,0.7395,0.7424,0.7435,0.7423,0.7461,0.7462,0.7451,0.7455,0.7448,0.7461,0.7457,0.7457,0.7457,0,0.7041,0.7073,0.7114,0.7159,0.7171,0.7192,0.7229,0.7255,0.7291,0.7307,0.7332,0.7353,0.7382,0.7385,0.7427,0.7418,0.7435,0.7451,0.7452,0.7457,0.746,0.7461,0.7465,0.7467,0.7461,0.7461,0.746,0,0.7027,0.7081,0.7113,0.7131,0.7183,0.7197,0.7219,0.7255,0.7276,0.7308,0.7322,0.7357,0.7376,0.7402,0.7432,0.7431,0.747,0.7475,0.7484,0.7483,0.7492,0.7491,0.7499,0.7502,0.7502,0.7501,0.7501,0,0.7037,0.7061,0.7108,0.7128,0.7156,0.7189,0.7216,0.724,0.7272,0.7296,0.7321,0.7344,0.7381,0.7408,0.7431,0.7462,0.747,0.7484,0.749,0.7482,0.7481,0.7494,0.7495,0.7502,0.7502,0.7502,0.7502,0,0.7027,0.7059,0.7096,0.7143,0.7155,0.7174,0.7213,0.7233,0.7258,0.7289,0.7298,0.7337,0.7371,0.7403,0.7447,0.7462,0.7493,0.75,0.7481,0.7485,0.7492,0.7491,0.751,0.7514,0.7513,0.7513,0.7513,0,0.7031,0.7051,0.7099,0.7118,0.714,0.7169,0.7191,0.7224,0.7245,0.7288,0.7303,0.7338,0.7368,0.7419,0.7451,0.7485,0.7494,0.7499,0.7499,0.7491,0.7495,0.7494,0.7496,0.7498,0.7498,0.7498,0.7497,0,0.7035,0.705,0.708,0.7117,0.7142,0.7172,0.7203,0.7216,0.7255,0.7278,0.7312,0.7336,0.7381,0.7416,0.7453,0.7476,0.7493,0.7497,0.7501,0.7493,0.7482,0.7489,0.748,0.7496,0.7497,0.7497,0.7497,0.7497,0.7033,0.7051,0.7089,0.7122,0.7149,0.7177,0.7198,0.7226,0.7256,0.7296,0.7313,0.7348,0.7383,0.7436,0.7458,0.7486,0.749,0.7496,0.7497,0.7498,0.7497,0.7477,0.7493,0.7493,0.7493,0.7493,0.7493,0,0.7038,0.7064,0.7094,0.7136,0.7162,0.7177,0.7212,0.7232,0.7263,0.7295,0.7324,0.7364,0.7397,0.7432,0.7468,0.7483,0.7492,0.7491,0.7491,0.7496,0.7491,0.7484,0.7484,0.7484,0.7484,0.7484,0.7484,0.7484,0.7044,0.7077,0.7097,0.7143,0.7168,0.7203,0.7222,0.7248,0.7274,0.7317,0.7345,0.7368,0.7401,0.7439,0.7471,0.748,0.7492,0.749,0.7501,0.7496,0.7496,0.7497,0.7491,0.7492,0.7492,0.7504,0.7504,0.7504]}]]